This is the latest recevied weather packets stored in our database for station/object KO4DYK. If no packets are shown the sender has not sent any weather packets the latest 10 day(s).
| Time | Temp. | Humidity | Pressure | Rain* | Wind** | Luminosity | Snow |
|---|---|---|---|---|---|---|---|
| 1788293600 | 38.33° C | 53% | 1018.2 hPa | 0 mm | - | 574 W/m² | - |
| 1788293300 | 37.22° C | 50% | 1018.4 hPa | 0 mm | - | 590 W/m² | - |
| 1788292996 | 37.78° C | 48% | 1018.3 hPa | 0 mm | - | 134 W/m² | - |
| 1788292693 | 38.33° C | 46% | 1018.5 hPa | 0 mm | - | 133 W/m² | - |
| 1788292387 | 38.89° C | 45% | 1018.5 hPa | 0 mm | - | 662 W/m² | - |
| 1788292083 | 39.44° C | 44% | 1018.5 hPa | 0 mm | - | 192 W/m² | - |
| 1788291777 | 38.33° C | 45% | 1018.7 hPa | 0 mm | - | 713 W/m² | - |
| 1788291474 | 36.67° C | 49% | 1018.9 hPa | 0 mm | - | 720 W/m² | - |
| 1788291172 | 36.11° C | 51% | 1018.8 hPa | 0 mm | - | 189 W/m² | - |
| 1788290867 | 36.67° C | 49% | 1018.7 hPa | 0 mm | - | 167 W/m² | - |
| 1788290563 | 37.22° C | 48% | 1018.8 hPa | 0 mm | - | 165 W/m² | - |
| 1788290258 | 36.67° C | 49% | 1019.1 hPa | 0 mm | - | 648 W/m² | - |
| 1788289954 | 36.11° C | 51% | 1019 hPa | 0 mm | - | 204 W/m² | - |
| 1788289650 | 36.11° C | 51% | 1019.1 hPa | 0 mm | - | 150 W/m² | - |
| 1788289350 | 36.67° C | 51% | 1019.1 hPa | 0 mm | - | 151 W/m² | - |
| 1788289048 | 37.78° C | 48% | 1019.1 hPa | 0 mm | - | 150 W/m² | - |
| 1788288747 | 38.33° C | 48% | 1019.4 hPa | 0 mm | - | 212 W/m² | - |
| 1788288443 | 38.33° C | 46% | 1019.3 hPa | 0 mm | - | 684 W/m² | - |
| 1788288138 | 37.78° C | 49% | 1019.3 hPa | 0 mm | - | 734 W/m² | - |
| 1788287834 | 37.22° C | 52% | 1019.4 hPa | 0 mm | - | 729 W/m² | - |
| 1788287533 | 36.67° C | 56% | 1019.4 hPa | 0 mm | - | 700 W/m² | - |
| 1788287229 | 36.67° C | 55% | 1019.6 hPa | 0 mm | - | 186 W/m² | - |
| 1788286923 | 36.67° C | 51% | 1019.5 hPa | 0 mm | - | 214 W/m² | - |
| 1788286618 | 37.78° C | 50% | 1019.6 hPa | 0 mm | - | 216 W/m² | - |
| 1788286317 | 36.67° C | 52% | 1019.6 hPa | 0 mm | - | 758 W/m² | - |
* Rain latest hour (hover to see other rain measurements)
** Current wind speed in m/s (hover to see current wind gust speed)